Home > Weather > Samsun > Past weeks

Flag for Turkey Past Weather in Samsun, Turkey — Yesterday and Last 2 Weeks

Now
77 °F

Scattered clouds.


Feels Like: 78 °F
Forecast: 66 / 87 °F
Wind: 10 mph from West

Location: Samsun / Carsamba

Current Time: Jul 28, 2016 at 9:25:06 PM

Latest Report: Jul 28, 2016 at 8:50 PM


Visibility: N/A

Pressure: 29.89 "Hg

Humidity: 83%

Dew Point: 72 °F

Location of SamsunLocation

Past Weather in Samsun — Graph

°F

Samsun Temperature Yesterday

Maximum temperature yesterday: 82 °F (at 12:50 PM)
Minimum temperature yesterday: 63 °F (at 4:50 AM)
Average temperature yesterday: 74 °F

High & Low Weather Summary for the Past Weeks

 TemperatureHumidityPressure
High90 °F (Jul 16, 12:50 PM)94% (Jul 13, 11:50 PM)30.01 "Hg (Jul 13, 11:50 PM)
Low57 °F (Jul 24, 4:50 AM)45% (Jul 23, 4:50 PM)29.68 "Hg (Jul 17, 4:50 PM)
Average75 °F74%29.86 "Hg
* Reported Jul 13 7:50 PM — Jul 28 7:50 PM, Samsun, Weather by CustomWeather, © 2016

Note: Actual official high and low records may vary slightly from our data, if they occured in-between our weather recording intervals... More about our weather records

Advertising

Samsun Weather History for the Previous 24 Hours

Scroll right to see more
 ConditionsComfort  
Time TempWeatherWind HumidityBarometerVisibility
7:50 PM
Thu, Jul 28
77 °FScattered clouds.12 mph83%29.86 "HgN/A
6:50 PM79 °FScattered clouds.12 mph79%29.86 "HgN/A
5:50 PM81 °FBroken clouds.10 mph74%29.86 "HgN/A
4:50 PM81 °FBroken clouds.13 mph79%29.86 "HgN/A
3:50 PM82 °FBroken clouds.14 mph74%29.86 "HgN/A
2:50 PM82 °FBroken clouds.14 mph74%29.86 "HgN/A
1:50 PM81 °FBroken clouds.14 mph79%29.86 "HgN/A
12:50 PM82 °FBroken clouds.12 mph74%29.86 "HgN/A
11:50 AM82 °FBroken clouds.12 mph62%29.89 "HgN/A
10:50 AM82 °FBroken clouds.12 mph62%29.89 "HgN/A
9:50 AM81 °FScattered clouds.10 mph62%29.89 "HgN/A
8:50 AM79 °FScattered clouds.8 mph65%29.89 "HgN/A
7:50 AM75 °FBroken clouds.3 mph74%29.89 "HgN/A
6:50 AM70 °FScattered clouds.2 mph83%29.89 "HgN/A
5:50 AM66 °FPassing clouds.5 mph88%29.86 "Hg6 mi
4:50 AM66 °FPassing clouds.3 mph88%29.86 "Hg5 mi
3:50 AM66 °FPassing clouds.3 mph94%29.86 "Hg4 mi
2:50 AM66 °FPassing clouds.1 mph94%29.86 "Hg4 mi
1:50 AM68 °FPartly cloudy.1 mph88%29.86 "Hg4 mi
12:50 AM70 °FPartly cloudy.3 mph88%29.86 "Hg5 mi
11:50 PM
Wed, Jul 27
70 °FPassing clouds.3 mph88%29.86 "Hg5 mi
10:50 PM70 °FPassing clouds.3 mph88%29.86 "Hg4 mi
9:50 PM72 °FPassing clouds.2 mph88%29.86 "HgN/A
Weather by CustomWeather, © 2016

See weather overviewHow to use our weather pages